| time (UTC) | temp F | wind direction | speed MPH | gust MPH | rain 1hr in | rain 24hr in | rain mn in | humidity % | barometer mb |
| 20260502203304 | 58 | 225 | 0.0 | 1.0 | 0.00 | 0.19 | 0.00 | 95 | 1011.8 |
| 20260502202803 | 58 | 225 | 3.0 | 4.0 | 0.00 | 0.19 | 0.00 | 94 | 1011.9 |
| 20260502202304 | 58 | 180 | 0.0 | 1.0 | 0.00 | 0.19 | 0.00 | 94 | 1012.0 |
| 20260502201817 | 58 | 180 | 0.0 | 1.0 | 0.00 | 0.19 | 0.00 | 94 | 1011.8 |
| 20260502201307 | 58 | 180 | 0.0 | 0.0 | 0.00 | 0.19 | 0.00 | 94 | 1012.0 |
| 20260502200807 | 58 | 180 | 0.0 | 1.0 | 0.00 | 0.19 | 0.00 | 94 | 1011.8 |
| 20260502200306 | 58 | 180 | 0.0 | 1.0 | 0.00 | 0.19 | 0.00 | 94 | 1011.8 |
| 20260502195811 | 58 | 180 | 0.0 | 0.0 | 0.00 | 0.19 | 0.00 | 94 | 1011.8 |
| 20260502195300 | 58 | 180 | 0.0 | 1.0 | 0.02 | 0.19 | 0.00 | 94 | 1011.8 |
| 20260502194815 | 58 | 225 | 0.0 | 1.0 | 0.02 | 0.19 | 0.00 | 94 | 1011.9 |
| 20260502194304 | 58 | 186 | 0.0 | 0.0 | 0.02 | 0.19 | 0.00 | 94 | 1011.8 |
| 20260502193804 | 58 | 184 | 0.0 | 1.0 | 0.02 | 0.19 | 0.00 | 94 | 1011.9 |
| 20260502193304 | 58 | 172 | 0.0 | 1.0 | 0.02 | 0.19 | 0.00 | 93 | 1012.0 |
| 20260502192803 | 58 | 174 | 0.0 | 1.0 | 0.02 | 0.19 | 0.00 | 93 | 1012.1 |
| 20260502192305 | 58 | 174 | 1.0 | 2.0 | 0.02 | 0.19 | 0.00 | 93 | 1011.9 |
| 20260502191803 | 58 | 143 | 1.0 | 2.0 | 0.02 | 0.19 | 0.00 | 93 | 1011.7 |
| 20260502191302 | 58 | 152 | 1.0 | 2.0 | 0.02 | 0.19 | 0.00 | 92 | 1011.7 |
| 20260502190802 | 58 | 121 | 1.0 | 2.0 | 0.02 | 0.19 | 0.00 | 92 | 1011.7 |
| 20260502190316 | 58 | 180 | 1.0 | 2.0 | 0.02 | 0.19 | 0.00 | 92 | 1011.7 |
| 20260502185806 | 58 | 180 | 0.0 | 1.0 | 0.02 | 0.19 | 0.00 | 92 | 1011.8 |
| 20260502185306 | 58 | 180 | 0.0 | 1.0 | 0.00 | 0.17 | 0.00 | 92 | 1012.1 |
| 20260502184756 | 59 | 180 | 0.0 | 2.0 | 0.00 | 0.17 | 0.00 | 92 | 1011.8 |
| 20260502184255 | 59 | 180 | 1.0 | 2.0 | 0.00 | 0.17 | 0.00 | 92 | 1011.9 |
| 20260502183755 | 59 | 180 | 0.0 | 2.0 | 0.00 | 0.17 | 0.00 | 91 | 1012.1 |
| 20260502183254 | 59 | 180 | 1.0 | 2.0 | 0.00 | 0.17 | 0.00 | 91 | 1012.0 |
| 20260502182254 | 59 | 180 | 1.0 | 2.0 | 0.00 | 0.17 | 0.00 | 91 | 1011.8 |
| 20260502181753 | 59 | 180 | 0.0 | 1.0 | 0.00 | 0.17 | 0.00 | 91 | 1011.8 |
| 20260502181253 | 59 | 90 | 0.0 | 2.0 | 0.00 | 0.17 | 0.00 | 92 | 1012.0 |
| 20260502180808 | 59 | 129 | 0.0 | 2.0 | 0.00 | 0.17 | 0.00 | 92 | 1012.1 |
| 20260502180307 | 59 | 129 | 0.0 | 2.0 | 0.00 | 0.17 | 0.00 | 92 | 1012.0 |
| 20260502170311 | 59 | 90 | 0.0 | 1.0 | 0.05 | 0.17 | 0.00 | 92 | 1012.6 |
| 20260502164300 | 58 | 225 | 0.0 | 0.0 | 0.17 | 0.17 | 0.00 | 91 | 1013.2 |
| 20260502163759 | 58 | 225 | 0.0 | 0.0 | 0.17 | 0.17 | 0.00 | 91 | 1013.1 |
| 20260502163259 | 59 | 225 | 0.0 | 2.0 | 0.17 | 0.17 | 0.00 | 90 | 1013.2 |
| 20260502162759 | 59 | 225 | 0.0 | 1.0 | 0.15 | 0.15 | 0.00 | 90 | 1013.1 |
| 20260502162258 | 59 | 212 | 1.0 | 2.0 | 0.15 | 0.15 | 0.00 | 89 | 1013.4 |
| 20260502161758 | 59 | 183 | 0.0 | 1.0 | 0.15 | 0.15 | 0.00 | 88 | 1013.2 |
| 20260502161313 | 59 | 181 | 0.0 | 1.0 | 0.14 | 0.14 | 0.00 | 88 | 1013.4 |
| 20260502160802 | 59 | 172 | 0.0 | 1.0 | 0.13 | 0.13 | 0.00 | 86 | 1013.6 |
| 20260502160301 | 59 | 172 | 1.0 | 2.0 | 0.12 | 0.12 | 0.00 | 84 | 1013.7 |
| 20260502152253 | 70 | 166 | 2.0 | 3.0 | 0.00 | 0.00 | 0.00 | 52 | 1013.4 |
| 20260502151753 | 70 | 157 | 2.0 | 2.0 | 0.00 | 0.00 | 0.00 | 49 | 1013.3 |
| 20260502151308 | 70 | 195 | 0.0 | 3.0 | 0.00 | 0.00 | 0.00 | 49 | 1013.5 |
| 20260502150807 | 71 | 200 | 0.0 | 2.0 | 0.00 | 0.00 | 0.00 | 48 | 1013.7 |
| 20260502150307 | 71 | 198 | 1.0 | 2.0 | 0.00 | 0.00 | 0.00 | 47 | 1013.3 |
| 20260502130258 | 74 | 181 | 1.0 | 2.0 | 0.00 | 0.00 | 0.00 | 42 | 1015.5 |
| 20260502123755 | 74 | 190 | 1.0 | 2.0 | 0.00 | 0.00 | 0.00 | 42 | 1015.6 |
| 20260502123254 | 72 | 190 | 2.0 | 3.0 | 0.00 | 0.00 | 0.00 | 40 | 1015.8 |
| 20260502122754 | 73 | 220 | 2.0 | 2.0 | 0.00 | 0.00 | 0.00 | 39 | 1015.7 |
| 20260502122253 | 74 | 209 | 2.0 | 3.0 | 0.00 | 0.00 | 0.00 | 39 | 1015.9 |
| 20260502121753 | 72 | 198 | 2.0 | 2.0 | 0.00 | 0.00 | 0.00 | 42 | 1015.9 |
| 20260502121308 | 72 | 206 | 1.0 | 2.0 | 0.00 | 0.00 | 0.00 | 41 | 1016.0 |
| 20260502120807 | 71 | 194 | 1.0 | 2.0 | 0.00 | 0.00 | 0.00 | 44 | 1016.0 |
| 20260502120307 | 72 | 205 | 2.0 | 3.0 | 0.00 | 0.00 | 0.00 | 40 | 1016.0 |
| 20260502115807 | 72 | 191 | 3.0 | 5.0 | 0.00 | 0.00 | 0.00 | 39 | 1016.1 |
| 20260502115306 | 72 | 224 | 1.0 | 3.0 | 0.00 | 0.00 | 0.00 | 39 | 1016.2 |
| 20260502114756 | 72 | 231 | 2.0 | 4.0 | 0.00 | 0.00 | 0.00 | 43 | 1016.3 |
| 20260502114256 | 71 | 264 | 1.0 | 2.0 | 0.00 | 0.00 | 0.00 | 47 | 1016.5 |
| 20260502113755 | 70 | 257 | 2.0 | 2.0 | 0.00 | 0.00 | 0.00 | 48 | 1016.7 |
| 20260502113255 | 70 | 269 | 2.0 | 4.0 | 0.00 | 0.00 | 0.00 | 45 | 1016.7 |
| 20260502112755 | 71 | 268 | 2.0 | 3.0 | 0.00 | 0.00 | 0.00 | 46 | 1016.5 |
| 20260502112254 | 71 | 273 | 2.0 | 3.0 | 0.00 | 0.00 | 0.00 | 46 | 1016.4 |
| 20260502111754 | 71 | 277 | 1.0 | 2.0 | 0.00 | 0.00 | 0.00 | 49 | 1016.7 |
| 20260502111254 | 70 | 264 | 2.0 | 4.0 | 0.00 | 0.00 | 0.00 | 47 | 1016.7 |
| 20260502110808 | 70 | 253 | 2.0 | 3.0 | 0.00 | 0.00 | 0.00 | 47 | 1016.9 |
| 20260502110258 | 70 | 193 | 1.0 | 2.0 | 0.00 | 0.00 | 0.00 | 49 | 1016.9 |
| 20260502105758 | 70 | 195 | 2.0 | 4.0 | 0.00 | 0.00 | 0.00 | 48 | 1017.1 |
| 20260502105257 | 69 | 136 | 1.0 | 2.0 | 0.00 | 0.00 | 0.00 | 49 | 1016.9 |
| 20260502104757 | 69 | 159 | 2.0 | 3.0 | 0.00 | 0.00 | 0.00 | 50 | 1017.1 |
| 20260502104257 | 69 | 182 | 1.0 | 2.0 | 0.00 | 0.00 | 0.00 | 50 | 1017.3 |
| 20260502103757 | 69 | 199 | 2.0 | 3.0 | 0.00 | 0.00 | 0.00 | 50 | 1017.2 |
| 20260502103256 | 69 | 216 | 2.0 | 3.0 | 0.00 | 0.00 | 0.00 | 51 | 1017.4 |
| 20260502102756 | 68 | 184 | 2.0 | 4.0 | 0.00 | 0.00 | 0.00 | 52 | 1017.4 |
| 20260502102255 | 67 | 203 | 2.0 | 4.0 | 0.00 | 0.00 | 0.00 | 52 | 1017.3 |
| 20260502101755 | 67 | 167 | 2.0 | 4.0 | 0.00 | 0.00 | 0.00 | 52 | 1017.5 |
| 20260502101254 | 67 | 181 | 2.0 | 4.0 | 0.00 | 0.00 | 0.00 | 53 | 1017.5 |
| 20260502100755 | 67 | 186 | 1.0 | 2.0 | 0.00 | 0.00 | 0.00 | 53 | 1017.5 |
| 20260502100254 | 67 | 181 | 3.0 | 4.0 | 0.00 | 0.00 | 0.00 | 53 | 1017.5 |
| 20260502091259 | 65 | 188 | 2.0 | 2.0 | 0.00 | 0.00 | 0.00 | 59 | 1017.9 |
| 20260502090814 | 65 | 214 | 2.0 | 2.0 | 0.00 | 0.00 | 0.00 | 59 | 1018.1 |
| 20260502090303 | 65 | 224 | 3.0 | 4.0 | 0.00 | 0.00 | 0.00 | 61 | 1018.3 |
| 20260502071305 | 52 | 252 | 1.0 | 2.0 | 0.00 | 0.00 | 0.00 | 97 | 1019.1 |
| 20260502070805 | 51 | 231 | 0.0 | 1.0 | 0.00 | 0.00 | 0.00 | 97 | 1019.0 |
| 20260502070304 | 52 | 231 | 1.0 | 2.0 | 0.00 | 0.00 | 0.00 | 97 | 1018.8 |
| 20260502065804 | 51 | 202 | 1.0 | 2.0 | 0.00 | 0.00 | 0.00 | 98 | 1018.8 |
| 20260502065306 | 51 | 225 | 2.0 | 2.0 | 0.00 | 0.00 | 0.00 | 98 | 1018.9 |
| 20260502064753 | 51 | 225 | 0.0 | 0.0 | 0.00 | 0.00 | 0.00 | 98 | 1019.0 |
| 20260502064307 | 51 | 225 | 1.0 | 2.0 | 0.00 | 0.00 | 0.00 | 98 | 1019.0 |
| 20260502063806 | 51 | 225 | 0.0 | 2.0 | 0.00 | 0.00 | 0.00 | 98 | 1018.9 |
| 20260502063306 | 51 | 225 | 0.0 | 1.0 | 0.00 | 0.00 | 0.00 | 98 | 1018.9 |
| 20260502062806 | 51 | 225 | 0.0 | 2.0 | 0.00 | 0.00 | 0.00 | 98 | 1018.8 |
| 20260502062306 | 50 | 225 | 1.0 | 2.0 | 0.00 | 0.00 | 0.00 | 97 | 1018.8 |
| 20260502061805 | 50 | 240 | 1.0 | 2.0 | 0.00 | 0.00 | 0.00 | 97 | 1018.9 |
| 20260502061304 | 50 | 263 | 0.0 | 1.0 | 0.00 | 0.00 | 0.00 | 97 | 1018.9 |
| 20260502060804 | 50 | 244 | 0.0 | 1.0 | 0.00 | 0.00 | 0.00 | 98 | 1018.8 |
| 20260502060304 | 50 | 226 | 0.0 | 1.0 | 0.00 | 0.00 | 0.00 | 98 | 1018.9 |
| 20260502055803 | 49 | 223 | 0.0 | 2.0 | 0.00 | 0.00 | 0.00 | 98 | 1019.1 |
| 20260502055305 | 49 | 222 | 1.0 | 3.0 | 0.00 | 0.00 | 0.00 | 98 | 1018.9 |
| 20260502054802 | 49 | 205 | 1.0 | 2.0 | 0.00 | 0.00 | 0.00 | 98 | 1018.9 |
| 20260502053802 | 49 | 176 | 2.0 | 3.0 | 0.00 | 0.00 | 0.00 | 97 | 1018.7 |
| 20260502053302 | 49 | 179 | 1.0 | 2.0 | 0.00 | 0.00 | 0.00 | 97 | 1018.9 |
| 20260502052801 | 49 | 217 | 1.0 | 2.0 | 0.00 | 0.00 | 0.00 | 97 | 1019.0 |
| 20260502052301 | 49 | 225 | 0.0 | 2.0 | 0.00 | 0.00 | 0.00 | 97 | 1018.9 |
| 20260502051816 | 49 | 225 | 1.0 | 2.0 | 0.00 | 0.00 | 0.00 | 97 | 1018.9 |
| 20260502051305 | 49 | 230 | 0.0 | 0.0 | 0.00 | 0.00 | 0.00 | 97 | 1018.9 |
| 20260502050805 | 49 | 230 | 1.0 | 2.0 | 0.00 | 0.00 | 0.00 | 97 | 1018.9 |
| 20260502050255 | 49 | 248 | 2.0 | 2.0 | 0.00 | 0.00 | 0.00 | 97 | 1018.9 |
| 20260502045754 | 49 | 292 | 0.0 | 2.0 | 0.00 | 0.00 | 0.00 | 96 | 1019.0 |
| 20260502045254 | 49 | 298 | 0.0 | 2.0 | 0.00 | 0.00 | 0.00 | 96 | 1018.9 |
| 20260502044753 | 49 | 298 | 1.0 | 2.0 | 0.00 | 0.00 | 0.00 | 96 | 1018.8 |
| 20260502044308 | 49 | 308 | 0.0 | 2.0 | 0.00 | 0.00 | 0.00 | 96 | 1018.7 |
| 20260502043807 | 49 | 305 | 2.0 | 3.0 | 0.00 | 0.00 | 0.00 | 96 | 1018.8 |
| 20260502043307 | 49 | 298 | 1.0 | 2.0 | 0.00 | 0.00 | 0.00 | 96 | 1018.7 |
| 20260502042757 | 49 | 299 | 2.0 | 3.0 | 0.00 | 0.00 | 0.00 | 96 | 1018.9 |
| 20260502042256 | 49 | 271 | 0.0 | 1.0 | 0.00 | 0.00 | 0.00 | 96 | 1018.9 |
| 20260502041756 | 49 | 268 | 0.0 | 2.0 | 0.00 | 0.00 | 0.00 | 96 | 1018.7 |
| 20260502041255 | 49 | 268 | 1.0 | 4.0 | 0.00 | 0.00 | 0.00 | 96 | 1018.8 |
| 20260502040810 | 49 | 267 | 1.0 | 2.0 | 0.00 | 0.00 | 0.00 | 96 | 1018.9 |
| 20260502040300 | 50 | 258 | 2.0 | 3.0 | 0.00 | 0.00 | 0.00 | 96 | 1018.9 |
| 20260502035759 | 49 | 242 | 2.0 | 2.0 | 0.00 | 0.00 | 0.00 | 96 | 1018.8 |
| 20260502035313 | 49 | 225 | 1.0 | 3.0 | 0.00 | 0.00 | 0.00 | 96 | 1019.0 |
| 20260502034803 | 49 | 180 | 0.0 | 2.0 | 0.00 | 0.00 | 0.00 | 95 | 1018.9 |
| 20260502034302 | 49 | 180 | 0.0 | 1.0 | 0.00 | 0.00 | 0.00 | 95 | 1018.9 |
| 20260502033802 | 49 | 270 | 0.0 | 2.0 | 0.00 | 0.00 | 0.00 | 95 | 1019.0 |
| 20260502033301 | 49 | 270 | 0.0 | 1.0 | 0.00 | 0.00 | 0.00 | 95 | 1019.0 |
| 20260502032801 | 49 | 270 | 0.0 | 0.0 | 0.00 | 0.00 | 0.00 | 95 | 1019.2 |
| 20260502032300 | 49 | 270 | 0.0 | 1.0 | 0.00 | 0.00 | 0.00 | 95 | 1019.1 |
| 20260502031800 | 49 | 270 | 0.0 | 0.0 | 0.00 | 0.00 | 0.00 | 95 | 1019.2 |
| 20260502031300 | 49 | 270 | 1.0 | 2.0 | 0.00 | 0.00 | 0.00 | 95 | 1019.2 |
| 20260502030800 | 50 | 180 | 0.0 | 2.0 | 0.00 | 0.00 | 0.00 | 95 | 1019.2 |
| 20260502030259 | 50 | 180 | 0.0 | 1.0 | 0.00 | 0.00 | 0.00 | 95 | 1019.3 |
| 20260502025759 | 50 | 180 | 0.0 | 1.0 | 0.00 | 0.00 | 0.00 | 95 | 1019.2 |
| 20260502025314 | 50 | 180 | 0.0 | 1.0 | 0.00 | 0.00 | 0.00 | 94 | 1019.2 |
| 20260502024803 | 50 | 180 | 0.0 | 1.0 | 0.00 | 0.00 | 0.00 | 94 | 1019.1 |
| 20260502024303 | 50 | 180 | 0.0 | 1.0 | 0.00 | 0.00 | 0.00 | 94 | 1019.2 |
| 20260502023803 | 50 | 180 | 0.0 | 1.0 | 0.00 | 0.00 | 0.00 | 94 | 1019.3 |
| 20260502023302 | 50 | 180 | 0.0 | 1.0 | 0.00 | 0.00 | 0.00 | 94 | 1019.2 |
| 20260502022802 | 50 | 180 | 0.0 | 0.0 | 0.00 | 0.00 | 0.00 | 94 | 1019.4 |
| 20260502022305 | 50 | 180 | 0.0 | 1.0 | 0.00 | 0.00 | 0.00 | 94 | 1019.4 |
| 20260502021801 | 50 | 180 | 0.0 | 1.0 | 0.00 | 0.00 | 0.00 | 94 | 1019.3 |
| 20260502021301 | 50 | 180 | 0.0 | 1.0 | 0.00 | 0.00 | 0.00 | 93 | 1019.4 |
| 20260502020816 | 50 | 180 | 0.0 | 2.0 | 0.00 | 0.00 | 0.00 | 92 | 1019.4 |
| 20260502020305 | 50 | 180 | 0.0 | 1.0 | 0.00 | 0.00 | 0.00 | 93 | 1019.4 |
| 20260502015755 | 50 | 180 | 0.0 | 0.0 | 0.00 | 0.00 | 0.00 | 93 | 1019.3 |
| 20260502015254 | 50 | 180 | 0.0 | 0.0 | 0.00 | 0.00 | 0.00 | 93 | 1019.4 |
| 20260502014809 | 50 | 180 | 0.0 | 0.0 | 0.00 | 0.00 | 0.00 | 93 | 1019.3 |
| 20260502014314 | 50 | 180 | 0.0 | 0.0 | 0.00 | 0.00 | 0.00 | 92 | 1019.3 |
| 20260502013803 | 50 | 180 | 0.0 | 1.0 | 0.00 | 0.00 | 0.00 | 91 | 1019.4 |
| 20260502013303 | 50 | 180 | 0.0 | 1.0 | 0.00 | 0.00 | 0.00 | 91 | 1019.5 |
| 20260502012803 | 51 | 180 | 0.0 | 0.0 | 0.00 | 0.00 | 0.00 | 91 | 1019.6 |
| 20260502012306 | 51 | 180 | 0.0 | 0.0 | 0.00 | 0.00 | 0.00 | 91 | 1019.5 |
| 20260502011802 | 51 | 180 | 0.0 | 0.0 | 0.00 | 0.00 | 0.00 | 91 | 1019.6 |
| 20260502011301 | 51 | 180 | 0.0 | 0.0 | 0.00 | 0.00 | 0.00 | 91 | 1019.7 |
| 20260502010816 | 51 | 180 | 0.0 | 0.0 | 0.00 | 0.00 | 0.00 | 91 | 1019.6 |
| 20260502010305 | 51 | 180 | 0.0 | 1.0 | 0.00 | 0.00 | 0.00 | 90 | 1019.7 |
| 20260502005805 | 51 | 180 | 0.0 | 0.0 | 0.00 | 0.00 | 0.00 | 90 | 1019.7 |
| 20260502005306 | 51 | 270 | 0.0 | 0.0 | 0.00 | 0.00 | 0.00 | 90 | 1019.7 |
| 20260502004804 | 51 | 270 | 0.0 | 1.0 | 0.00 | 0.00 | 0.00 | 90 | 1019.7 |
| 20260502004254 | 52 | 270 | 0.0 | 0.0 | 0.00 | 0.00 | 0.00 | 90 | 1019.9 |
| 20260502003753 | 52 | 270 | 0.0 | 1.0 | 0.00 | 0.00 | 0.00 | 89 | 1020.1 |
| 20260502003253 | 52 | 279 | 0.0 | 1.0 | 0.00 | 0.00 | 0.00 | 89 | 1020.1 |
| 20260502002807 | 53 | 288 | 1.0 | 2.0 | 0.00 | 0.00 | 0.00 | 89 | 1020.0 |
| 20260502002307 | 53 | 304 | 0.0 | 2.0 | 0.00 | 0.00 | 0.00 | 89 | 1020.0 |
| 20260502001756 | 53 | 304 | 1.0 | 2.0 | 0.00 | 0.00 | 0.00 | 89 | 1020.2 |
| 20260502001256 | 53 | 335 | 0.0 | 2.0 | 0.00 | 0.00 | 0.00 | 88 | 1020.2 |
| 20260502000756 | 53 | 335 | 1.0 | 2.0 | 0.00 | 0.00 | 0.00 | 87 | 1020.3 |
| 20260502000310 | 53 | 342 | 1.0 | 2.0 | 0.00 | 0.00 | 0.00 | 87 | 1020.3 |
| 20260501235800 | 53 | 270 | 0.0 | 1.0 | 0.00 | 0.00 | 0.00 | 86 | 1020.4 |
| 20260501235259 | 53 | 270 | 0.0 | 1.0 | 0.00 | 0.00 | 0.00 | 86 | 1020.2 |
| 20260501234758 | 53 | 270 | 0.0 | 1.0 | 0.00 | 0.00 | 0.00 | 86 | 1020.3 |
| 20260501234258 | 53 | 270 | 0.0 | 2.0 | 0.00 | 0.00 | 0.00 | 86 | 1020.3 |
| 20260501233758 | 53 | 270 | 1.0 | 2.0 | 0.00 | 0.00 | 0.00 | 85 | 1020.3 |
| 20260501233257 | 53 | 277 | 1.0 | 2.0 | 0.00 | 0.00 | 0.00 | 85 | 1020.2 |
| 20260501232756 | 53 | 283 | 1.0 | 2.0 | 0.00 | 0.00 | 0.00 | 85 | 1020.3 |
| 20260501232256 | 53 | 315 | 0.0 | 1.0 | 0.00 | 0.00 | 0.00 | 84 | 1020.5 |
| 20260501231756 | 53 | 315 | 0.0 | 1.0 | 0.00 | 0.00 | 0.00 | 84 | 1020.3 |
| 20260501231310 | 53 | 293 | 0.0 | 1.0 | 0.00 | 0.00 | 0.00 | 83 | 1020.4 |
| 20260501230800 | 54 | 287 | 1.0 | 2.0 | 0.00 | 0.00 | 0.00 | 82 | 1020.4 |
| 20260501230259 | 54 | 263 | 0.0 | 1.0 | 0.00 | 0.00 | 0.00 | 82 | 1020.3 |
| 20260501225759 | 54 | 264 | 0.0 | 0.0 | 0.00 | 0.00 | 0.00 | 82 | 1020.3 |
| 20260501225258 | 54 | 265 | 0.0 | 1.0 | 0.00 | 0.00 | 0.00 | 81 | 1020.4 |
| 20260501224758 | 54 | 265 | 1.0 | 2.0 | 0.00 | 0.00 | 0.00 | 81 | 1020.4 |
| 20260501224258 | 55 | 270 | 1.0 | 2.0 | 0.00 | 0.00 | 0.00 | 81 | 1020.4 |
| 20260501223757 | 55 | 274 | 1.0 | 2.0 | 0.00 | 0.00 | 0.00 | 81 | 1020.5 |
| 20260501223257 | 55 | 262 | 1.0 | 2.0 | 0.00 | 0.00 | 0.00 | 80 | 1020.2 |
| 20260501222756 | 55 | 261 | 1.0 | 2.0 | 0.00 | 0.00 | 0.00 | 80 | 1020.5 |
| 20260501222256 | 55 | 256 | 1.0 | 2.0 | 0.00 | 0.00 | 0.00 | 80 | 1020.4 |
| 20260501221755 | 55 | 256 | 2.0 | 2.0 | 0.00 | 0.00 | 0.00 | 79 | 1020.3 |
| 20260501221310 | 55 | 277 | 1.0 | 2.0 | 0.00 | 0.00 | 0.00 | 79 | 1020.4 |
| 20260501220800 | 56 | 271 | 1.0 | 2.0 | 0.00 | 0.00 | 0.00 | 78 | 1020.4 |
| 20260501220300 | 56 | 271 | 2.0 | 3.0 | 0.00 | 0.00 | 0.00 | 78 | 1020.4 |
| 20260501215259 | 56 | 279 | 2.0 | 3.0 | 0.00 | 0.00 | 0.00 | 77 | 1020.4 |
| 20260501214759 | 56 | 288 | 1.0 | 2.0 | 0.00 | 0.00 | 0.00 | 76 | 1020.5 |
| 20260501214258 | 56 | 272 | 1.0 | 2.0 | 0.00 | 0.00 | 0.00 | 76 | 1020.4 |
| 20260501213758 | 57 | 256 | 1.0 | 2.0 | 0.00 | 0.00 | 0.00 | 76 | 1020.4 |
| 20260501213257 | 57 | 249 | 0.0 | 1.0 | 0.00 | 0.00 | 0.00 | 76 | 1020.4 |
| 20260501212757 | 57 | 249 | 1.0 | 2.0 | 0.00 | 0.00 | 0.00 | 75 | 1020.3 |
| 20260501212257 | 57 | 259 | 2.0 | 3.0 | 0.00 | 0.00 | 0.00 | 75 | 1020.4 |
| 20260501211756 | 58 | 225 | 1.0 | 2.0 | 0.00 | 0.00 | 0.00 | 75 | 1020.4 |
| 20260501211256 | 58 | 180 | 0.0 | 1.0 | 0.00 | 0.00 | 0.00 | 75 | 1020.5 |
| 20260501210755 | 58 | 180 | 0.0 | 1.0 | 0.00 | 0.00 | 0.00 | 75 | 1020.5 |
| 20260501210255 | 58 | 270 | 0.0 | 2.0 | 0.00 | 0.00 | 0.00 | 75 | 1020.4 |
| 20260501205809 | 59 | 270 | 0.0 | 1.0 | 0.00 | 0.00 | 0.00 | 74 | 1020.1 |
| 20260501205309 | 59 | 270 | 0.0 | 0.0 | 0.00 | 0.00 | 0.00 | 73 | 1020.3 |
| 20260501204808 | 59 | 270 | 0.0 | 0.0 | 0.00 | 0.00 | 0.00 | 72 | 1020.3 |
| 20260501204308 | 60 | 270 | 0.0 | 1.0 | 0.00 | 0.00 | 0.00 | 72 | 1020.1 |
| 20260501203757 | 60 | 270 | 1.0 | 2.0 | 0.00 | 0.00 | 0.00 | 72 | 1020.2 |